Regional Weather Roundup
Issued by NWS Raleigh/Durham, NC

Home | Current Version | Previous Version | Text Only | Print | Product List | Glossary On
Versions: 1 2 3 4 5 6 7 8 9 10 11 12 13 14 15 16 17 18 19 20 21 22 23 24 25 26 27
000
ASUS42 KRAH 222110
RWRRAH
NORTH CAROLINA WEATHER ROUNDUP
NATIONAL WEATHER SERVICE RALEIGH NC
500 PM EDT WED OCT 22 2014

NOTE: "FAIR" INDICATES FEW OR NO CLOUDS BELOW 12,000 FEET WITH NO
SIGNIFICANT WEATHER AND/OR OBSTRUCTIONS TO VISIBILITY.

NCZ001-053-055-056-065-067-222200-
WESTERN NORTH CAROLINA

CITY           SKY/WX    TMP DP  RH WIND       PRES   REMARKS
ASHEVILLE      SUNNY     55  36  48 N20G30    30.13S
JEFFERSON      MOSUNNY   46  34  64 NW13G20   30.10S
MORGANTON      SUNNY     57  38  48 NW12G20   30.14S
HICKORY        SUNNY     58  38  47 N9        30.08S
RUTHERFORDTON  SUNNY     61  37  41 N10G18    30.10R
MOUNT AIRY     CLOUDY    58  41  53 N6G22     30.09F
BOONE          MOSUNNY   45  34  66 NW17G26   30.12S
$$

NCZ021-022-025-041-071-084-088-222200-
CENTRAL NORTH CAROLINA

CITY           SKY/WX    TMP DP  RH WIND       PRES   REMARKS
CHARLOTTE      MOSUNNY   64  36  35 N12       30.05S
GREENSBORO     MOSUNNY   62  39  42 NW14G26   30.03S
WINSTON-SALEM  MOSUNNY   60  37  42 NW18      30.06R
RALEIGH-DURHAM PTSUNNY   64  41  42 NW7       29.97S
FORT BRAGG     MOSUNNY   67  43  41 N12       29.96F
FAYETTEVILLE   PTSUNNY   66  42  41 NW15      29.96S
BURLINGTON     MOSUNNY   62  39  42 NW13G25   30.00S
LAURINBURG     PTSUNNY   68  42  38 N10G22    29.98F
$$

NCZ011-015-027-028-043-044-047-080-103-222200-
NORTHEASTERN NORTH CAROLINA

CITY           SKY/WX    TMP DP  RH WIND       PRES   REMARKS
ROCKY MT-WILSO CLOUDY    63  45  51 NW12G18   29.93S
GREENVILLE     PTSUNNY   61  46  59 NW3       29.94S
WASHINGTON     CLOUDY    60  48  65 NW7       29.91F
ELIZABETH CITY CLOUDY    58  50  75 NW17G26   29.85R
MANTEO         CLOUDY    57  51  79 NW15G24   29.83R
CAPE HATTERAS  CLOUDY    58  51  78 NW17G29   29.85S
$$

NCZ078-087-090-091-093-098-101-222200-
SOUTHEASTERN NORTH CAROLINA

CITY           SKY/WX    TMP DP  RH WIND       PRES   REMARKS
LUMBERTON      MOSUNNY   67  42  40 NW12      29.97S
GOLDSBORO      CLOUDY    65  48  52 NW9       29.92S
KINSTON        PTSUNNY   63  48  59 NW6       29.94F
KENANSVILLE    MOSUNNY   63  43  48 NW6       29.95S
NEW BERN       PTSUNNY   63  47  55 NW14G20   29.93S
CHERRY POINT   PTSUNNY   63  46  54 NW15G25   29.93R
BEAUFORT       PTSUNNY   62  47  57 NW28G35   29.91R
JACKSONVILLE   CLOUDY    65  46  50 NW12      29.93S
WILMINGTON     MOSUNNY   66  45  46 NW10      29.94S
$$




USA.gov is the U.S. government's official web portal to all federal, state and local government web resources and services.